TimeCDT,TemperatureF,Dew PointF,Humidity,Sea Level PressureIn,VisibilityMPH,Wind Direction,Wind SpeedMPH,Gust SpeedMPH,PrecipitationIn,Events,Conditions,WindDirDegrees,DateUTC
12:15 AM,40.8,30.2,66,30.33,10.0,East,4.6,-,N/A,,Clear,100,2013-04-21 05:15:00
12:35 AM,40.1,29.8,67,30.33,10.0,East,6.9,-,N/A,,Clear,100,2013-04-21 05:35:00
12:55 AM,40.5,29.7,65,30.33,10.0,ESE,6.9,-,N/A,,Clear,120,2013-04-21 05:55:00
1:15 AM,41.9,29.3,61,30.33,10.0,ESE,8.1,-,N/A,,Clear,110,2013-04-21 06:15:00
1:35 AM,41.2,30.0,65,30.33,10.0,ESE,8.1,-,N/A,,Clear,110,2013-04-21 06:35:00
4:15 AM,45.1,28.9,53,30.31,10.0,SE,17.3,23.0,N/A,,Overcast,140,2013-04-21 09:15:00
4:35 AM,45.0,29.5,55,30.32,10.0,SE,13.8,18.4,N/A,,Overcast,140,2013-04-21 09:35:00
4:55 AM,44.8,29.3,55,30.32,10.0,SE,16.1,19.6,N/A,,Mostly Cloudy,140,2013-04-21 09:55:00
5:15 AM,44.8,29.5,55,30.32,10.0,SE,13.8,20.7,N/A,,Mostly Cloudy,140,2013-04-21 10:15:00
5:35 AM,45.0,29.5,55,30.32,10.0,SE,13.8,20.7,N/A,,Overcast,140,2013-04-21 10:35:00
5:55 AM,45.0,29.3,54,30.33,10.0,SE,13.8,-,N/A,,Overcast,140,2013-04-21 10:55:00
6:15 AM,44.6,29.7,56,30.34,10.0,SE,13.8,-,N/A,,Overcast,140,2013-04-21 11:15:00
6:35 AM,44.6,30.0,57,30.34,10.0,SE,13.8,-,N/A,,Overcast,140,2013-04-21 11:35:00
6:55 AM,44.6,30.2,57,30.35,10.0,SE,13.8,-,N/A,,Overcast,140,2013-04-21 11:55:00
7:15 AM,44.8,30.4,57,30.35,10.0,SE,12.7,-,N/A,,Overcast,140,2013-04-21 12:15:00
7:35 AM,45.5,30.7,56,30.35,10.0,SE,15.0,18.4,N/A,,Mostly Cloudy,130,2013-04-21 12:35:00
7:55 AM,46.4,30.4,54,30.36,10.0,SE,13.8,-,N/A,,Overcast,130,2013-04-21 12:55:00
8:15 AM,47.1,30.7,53,30.35,10.0,SE,13.8,-,N/A,,Overcast,130,2013-04-21 13:15:00
8:35 AM,48.2,29.5,48,30.35,10.0,SE,19.6,24.2,N/A,,Overcast,140,2013-04-21 13:35:00
8:55 AM,49.1,30.0,48,30.35,10.0,SE,16.1,-,N/A,,Overcast,140,2013-04-21 13:55:00
9:15 AM,50.9,30.2,45,30.35,10.0,SE,16.1,21.9,N/A,,Mostly Cloudy,130,2013-04-21 14:15:00
9:35 AM,51.1,30.0,44,30.35,10.0,SSE,18.4,23.0,N/A,,Mostly Cloudy,150,2013-04-21 14:35:00
9:55 AM,51.3,29.7,44,30.36,10.0,SSE,17.3,25.3,N/A,,Overcast,150,2013-04-21 14:55:00
10:15 AM,52.3,30.7,44,30.35,10.0,SSE,18.4,24.2,N/A,,Mostly Cloudy,150,2013-04-21 15:15:00
10:35 AM,52.7,30.9,43,30.35,10.0,SSE,19.6,23.0,N/A,,Overcast,150,2013-04-21 15:35:00
10:55 AM,54.0,31.8,43,30.35,10.0,SE,20.7,26.5,N/A,,Overcast,140,2013-04-21 15:55:00
11:15 AM,54.5,31.8,42,30.35,10.0,SE,23.0,28.8,N/A,,Overcast,140,2013-04-21 16:15:00
11:35 AM,55.4,32.4,42,30.33,10.0,SSE,19.6,25.3,N/A,,Mostly Cloudy,150,2013-04-21 16:35:00
11:55 AM,54.3,33.6,46,30.33,10.0,SSE,18.4,25.3,N/A,,Mostly Cloudy,150,2013-04-21 16:55:00
12:15 PM,58.3,34.5,41,30.31,10.0,SSE,17.3,-,N/A,,Overcast,150,2013-04-21 17:15:00
12:35 PM,59.4,34.9,40,30.30,10.0,SSE,19.6,26.5,N/A,,Scattered Clouds,160,2013-04-21 17:35:00
12:55 PM,60.8,35.6,39,30.30,10.0,SSE,17.3,25.3,N/A,,Clear,150,2013-04-21 17:55:00
1:15 PM,62.2,35.8,37,30.28,10.0,SSE,17.3,21.9,N/A,,Clear,160,2013-04-21 18:15:00
1:35 PM,62.2,35.6,37,30.28,10.0,SSE,18.4,23.0,N/A,,Clear,150,2013-04-21 18:35:00
1:55 PM,63.9,38.1,39,30.27,10.0,SSE,16.1,21.9,N/A,,Clear,160,2013-04-21 18:55:00
2:15 PM,64.4,36.7,36,30.26,10.0,SE,17.3,23.0,N/A,,Clear,140,2013-04-21 19:15:00
2:35 PM,64.6,37.0,36,30.25,10.0,SSE,17.3,24.2,N/A,,Clear,160,2013-04-21 19:35:00
2:55 PM,65.7,37.2,35,30.25,10.0,SSE,19.6,23.0,N/A,,Scattered Clouds,150,2013-04-21 19:55:00
3:15 PM,66.4,37.9,35,30.24,10.0,SSE,16.1,21.9,N/A,,Scattered Clouds,150,2013-04-21 20:15:00
3:35 PM,66.2,37.6,35,30.23,10.0,SE,17.3,-,N/A,,Clear,140,2013-04-21 20:35:00
3:55 PM,66.6,37.8,35,30.22,10.0,SSE,16.1,24.2,N/A,,Clear,150,2013-04-21 20:55:00
4:15 PM,67.3,37.8,34,30.22,10.0,SSE,18.4,21.9,N/A,,Clear,150,2013-04-21 21:15:00
4:35 PM,66.7,37.0,33,30.21,10.0,SSE,17.3,20.7,N/A,,Clear,160,2013-04-21 21:35:00
4:55 PM,67.1,37.8,34,30.20,10.0,SSE,18.4,-,N/A,,Clear,150,2013-04-21 21:55:00
5:15 PM,66.6,37.9,35,30.20,10.0,SSE,17.3,-,N/A,,Clear,150,2013-04-21 22:15:00
5:35 PM,66.2,39.2,37,30.20,10.0,SSE,17.3,-,N/A,,Clear,160,2013-04-21 22:35:00
5:55 PM,65.1,38.3,37,30.20,10.0,SSE,15.0,-,N/A,,Mostly Cloudy,150,2013-04-21 22:55:00
6:15 PM,65.3,37.9,36,30.19,10.0,SE,18.4,25.3,N/A,,Scattered Clouds,140,2013-04-21 23:15:00
6:35 PM,64.4,37.8,37,30.20,10.0,SE,19.6,24.2,N/A,,Clear,140,2013-04-21 23:35:00
6:55 PM,62.6,38.7,41,30.20,10.0,SSE,13.8,21.9,N/A,,Clear,150,2013-04-21 23:55:00
7:15 PM,62.6,37.9,40,30.20,10.0,SE,13.8,-,N/A,,Clear,140,2013-04-22 00:15:00
7:35 PM,61.3,38.1,42,30.20,10.0,SE,16.1,21.9,N/A,,Clear,140,2013-04-22 00:35:00
7:55 PM,60.3,38.5,44,30.20,10.0,SE,11.5,-,N/A,,Mostly Cloudy,140,2013-04-22 00:55:00
8:15 PM,59.5,38.7,46,30.20,10.0,SE,13.8,-,N/A,,Scattered Clouds,140,2013-04-22 01:15:00
8:35 PM,59.0,38.8,47,30.21,10.0,SE,11.5,-,N/A,,Clear,130,2013-04-22 01:35:00
8:55 PM,58.8,39.2,48,30.21,10.0,SE,12.7,-,N/A,,Scattered Clouds,140,2013-04-22 01:55:00
9:15 PM,58.1,39.2,49,30.22,10.0,SE,15.0,19.6,N/A,,Clear,140,2013-04-22 02:15:00
9:35 PM,57.7,39.4,50,30.22,10.0,SE,12.7,-,N/A,,Clear,140,2013-04-22 02:35:00
9:55 PM,57.4,39.6,51,30.22,10.0,SE,12.7,-,N/A,,Clear,140,2013-04-22 02:55:00
10:15 PM,57.4,40.1,53,30.22,10.0,SE,12.7,-,N/A,,Mostly Cloudy,140,2013-04-22 03:15:00
10:35 PM,57.2,40.5,54,30.22,10.0,SE,16.1,20.7,N/A,,Overcast,140,2013-04-22 03:35:00
10:55 PM,57.2,40.6,54,30.22,10.0,SE,15.0,-,N/A,,Mostly Cloudy,140,2013-04-22 03:55:00
11:15 PM,57.0,40.1,53,30.22,10.0,SSE,15.0,-,N/A,,Mostly Cloudy,150,2013-04-22 04:15:00
11:35 PM,57.2,39.0,51,30.21,10.0,SSE,17.3,-,N/A,,Mostly Cloudy,150,2013-04-22 04:35:00
11:55 PM,57.0,38.1,49,30.21,10.0,SSE,17.3,23.0,N/A,,Scattered Clouds,150,2013-04-22 04:55:00